Find WHDW 02-08

NORAD ID: 62978 Int'l Des: 2025-030 Owner: ZXW Country: CN Constellation: xingwang operational
LEOCIRCULAR

Live Position

Loading 3D Globe...

About WHDW 02-08

Description loading...

Upcoming Passes

Passes for default location (London). Set your location on the main map for personalized predictions.

Altitude History

Loading altitude history...

Two-Line Element Set

1 62978U 25030H 26104.19904825 -.00000079 00000-0 96514-4 0 9999
2 62978 50.0049 105.0122 0001212 303.4666 56.6090 13.29325733 57351
Epoch: Apr 14, 2026 • Age: 8 hours

Current Status

Altitude 1150.1 km
Velocity 7.28 km/s
Sub-Earth Point 18.33°N, 126.57°W
Launch Date Feb 11, 2025
Age 1.1 years
Type other

Technical Details

Classification Payload
Mass 700.00 kg
Dry Mass 700.00 kg
Total Mass 700.00 kg
Length 3.00 m
Diameter 1.00 m
Span 10.00 m
Shape Box + 2 Pan
Manufacturer CAST
Bus Type Xingwang C
Phase Status In Orbit
Owner/State ZXW/CN

Most Searched